Regional Weather Roundup
Issued by NWS

Home | Current Version | Previous Version | Graphics & Text | Print | Product List | Glossary On
Versions: 1 2 3 4 5 6 7 8 9 10 11 12 13 14 15 16 17 18 19 20 21 22 23 24 25 26 27 28 29 30 31 32 33 34 35 36 37 38 39 40 41 42 43 44 45 46 47 48 49 50
000
ASUS43 KOAX 172202
RWRNE

WEATHER ROUNDUP FOR NEBRASKA
NATIONAL WEATHER SERVICE OMAHA NE
500 PM CDT TUE OCT 17 2017

NOTES: SATELLITE DATA IS BEING USED TO AUGMENT CLOUD COVER ABOVE
       12000 FEET.
       "FAIR" INDICATES FEW OR NO CLOUDS BELOW 12,000 FEET WITH NO
       SIGNIFICANT WEATHER AND/OR OBSTRUCTIONS TO VISIBILITY.


NEZ001>004-019>022-054>056-172300-
NEBRASKA PANHANDLE

CITY           SKY/WX    TMP DP  RH WIND       PRES   REMARKS
SCOTTSBLUFF    SUNNY     78  14   9 W12       29.99F
ALLIANCE       SUNNY     76  15  10 W15       29.98F
CHADRON        SUNNY     79  14   8 SW8       29.91F
GORDON         FAIR      76  22  13 SW8       29.94F
KIMBALL        SUNNY     77  17  10 W18       30.06S
SIDNEY         SUNNY     79  13   8 SW16G26   30.03F
$$

NEZ057>060-069>072-079>082-172300-
SOUTHWEST NEBRASKA

CITY           SKY/WX    TMP DP  RH WIND       PRES   REMARKS
NORTH PLATTE   SUNNY     79  30  16 SW7       29.98F
IMPERIAL       SUNNY     80  13   8 SW10G20   30.02F
LEXINGTON      SUNNY     78  35  20 S8        29.99F
MCCOOK         SUNNY     80  29  15 S9        30.01F
OGALLALA       SUNNY     81  20  10 SW13G22   29.98F
$$

NEZ005>010-023>029-035>040-094-172300-
NORTH CENTRAL NEBRASKA

CITY           SKY/WX    TMP DP  RH WIND       PRES   REMARKS
VALENTINE      SUNNY     76  24  14 SW13      29.92F
AINSWORTH      SUNNY     77  36  22 S8        29.94F
BROKEN BOW     SUNNY     74  38  27 S9        29.98F
O`NEILL        SUNNY     74  42  30 S8        29.96F
ORD            SUNNY     77  32  19 S9        29.96F
THEDFORD       SUNNY     80  25  13 SW15      29.96F
$$

NEZ041-046>049-061>064-073>077-083>087-172300-
SOUTH CENTRAL NEBRASKA

CITY           SKY/WX    TMP DP  RH WIND       PRES   REMARKS
GRAND ISLAND   SUNNY     77  35  21 S5        29.99F
AURORA         SUNNY     78  37  22 CALM      29.99F
HASTINGS       SUNNY     79  34  19 CALM      30.01F
HEBRON         SUNNY     76  42  29 S7        30.02S
HOLDREGE       SUNNY     79  36  21 CALM      30.00F
KEARNEY        SUNNY     79  34  19 S3        30.00F
YORK           SUNNY     75  45  33 SE7       30.00F
$$

NEZ011>018-030>034-042>045-172300-
NORTHEAST NEBRASKA

CITY           SKY/WX    TMP DP  RH WIND       PRES   REMARKS
NORFOLK        SUNNY     78  36  21 SE7       29.95F
ALBION         SUNNY     78  41  26 CALM      29.98F
BLAIR          SUNNY     72  45  37 S10       30.01S
COLUMBUS       SUNNY     77  40  26 CALM      29.99F
FREMONT        SUNNY     72  44  36 S7        30.01S
TEKAMAH        SUNNY     72  43  35 S9        29.99F
WAYNE          SUNNY     77  31  18 CALM      29.96F
$$

NEZ050>053-065>068-078-088>093-172300-
SOUTHEAST NEBRASKA

CITY           SKY/WX    TMP DP  RH WIND       PRES   REMARKS
LINCOLN        SUNNY     73  46  38 S7        30.01F
OMAHA EPPLEY   MOSUNNY   72  45  37 S9        30.01S
BEATRICE       SUNNY     71  48  43 S8        30.02F
FALLS CITY     SUNNY     73  46  38 S10       30.02F
NEBRASKA CITY  SUNNY     72  46  40 SW12      30.02F
PLATTSMOUTH    SUNNY     72  46  38 S8        30.02S
$$

NEZ044-045-051>053-067-172300-
OMAHA AREA

CITY           SKY/WX    TMP DP  RH WIND       PRES   REMARKS
OMAHA EPPLEY   MOSUNNY   72  45  37 S9        30.01S
BLAIR          SUNNY     72  45  37 S10       30.01S
FREMONT        SUNNY     72  44  36 S7        30.01S
MILLARD        SUNNY     73  47  40 S6        30.01S
OFFUTT AFB     SUNNY     72  45  37 S6        30.00F
PLATTSMOUTH    SUNNY     72  46  38 S8        30.02S
WAHOO          FAIR      73  44  35 S7        30.00F
$$



USA.gov is the U.S. government's official web portal to all federal, state and local government web resources and services.